Regional Weather Roundup
Issued by NWS Kansas City/Pleasant Hill, MO

Home | Current Version | Previous Version | Text Only | Print | Product List | Glossary Off
Versions: 1 2 3 4 5 6 7 8 9 10 11 12 13 14 15 16 17 18 19 20 21 22 23 24 25 26 27 28 29 30 31 32 33 34 35 36 37 38 39 40 41 42 43 44 45 46 47 48 49 50

000
ASUS43 KEAX 301911
RWREAX

WEATHER ROUNDUP FOR EASTERN KANSAS AND NORTHWEST MISSOURI
NATIONAL WEATHER SERVICE KANSAS CITY/PLEASANT HILL MO
200 PM CDT SAT AUG 30 2014

KSZ040-057-103>105-MOZ028-029-037-043-302000-
...KANSAS CITY METROPOLITAN AREA...

CITY           SKY/WX    TMP DP  RH WIND       PRES   REMARKS
K.C. INTL      MOSUNNY   83  69  62 S3        29.93F
K.C. DOWNTOWN  SUNNY     86  66  51 VRB5      29.91F
LEES SUMMIT    MOSUNNY   85  67  54 VRB6      29.94S
OLATHE - IXD   SUNNY     86  64  47 VRB5      29.94F
OLATHE - OJC   SUNNY     86  64  47 VRB7      29.93F
LAWRENCE       SUNNY     90  67  46 CALM      29.92F HX  93

$$

MOZ001>008-011>017-020>025-030>033-038>040-044>046-053-054-302000-
...NORTHERN AND CENTRAL MISSOURI...

CITY           SKY/WX    TMP DP  RH WIND       PRES   REMARKS
ST. JOSEPH     MOSUNNY   84  69  60 CALM      29.92F
MOSBY          PTCLDY    82  66  57 CALM      29.92F
WHITEMAN AFB   SUNNY     85  68  56 W5        29.92F
CLINTON        SUNNY     88  70  55 CALM      29.92F HX  92
SEDALIA        PTSUNNY   90  68  48 SW10      29.92F HX  94
WARSAW         NOT AVBL
MARSHALL       MOSUNNY   88  72  58 W6        29.92F HX  94
CHILLICOTHE      N/A     85  68  56 CALM      29.93S
MOBERLY        MOSUNNY   84  68  58 W3        29.93
KIRKSVILLE     PTSUNNY   84  68  58 W7        29.93F

$$

MOZ041-047>049-056>058-063>065-088>090-097-302000-
...EASTERN AND SOUTHERN MISSOURI...

CITY           SKY/WX    TMP DP  RH WIND       PRES   REMARKS
ST. LOUIS INTL PTSUNNY   85  72  65 S13       29.94F HX  91
SPIRIT OF STL  PTSUNNY   84  72  67 S10G18    29.92F
COLUMBIA       MOSUNNY   87  69  54 SW10      29.91F HX  91
JEFFERSON CITY MOSUNNY   88  69  53 W9        29.90F HX  92
MEXICO         MOSUNNY   86  73  66 W5        29.91F HX  93
HANNIBAL       MOSUNNY   88  68  51 SW7       29.91F HX  91
ROLLA          TSTM      69  65  86 NW20G26   29.97R VSB 3/4
LEBANON        MOSUNNY   81  68  65 S7        29.96F
OSAGE BEACH    MOSUNNY   88  64  45 W7        29.92F
SPRINGFIELD    PTSUNNY   87  68  52 SW5       29.95F HX  90
BRANSON        PTSUNNY   81  68  65 NW8       30.00F
JOPLIN         CLOUDY    86  67  52 NW6       29.94F
WEST PLAINS    PTSUNNY   82  68  62 VRB7      30.01F

$$

IAZ060-094-KSZ022-034>040-054-083-096-NEZ052-066-093-302000-
...KANSAS...SOUTHEAST NEBRASKA AND IOWA...

CITY           SKY/WX    TMP DP  RH WIND       PRES   REMARKS
TOPEKA         MOSUNNY   89  67  47 VRB5      29.92F HX  92
MANHATTAN      SUNNY     89  63  41 CALM      29.92F HX  90
EMPORIA        SUNNY     88  59  37 VRB3      29.94F
CHANUTE        SUNNY     91  60  35 W6        29.93F HX  90
WICHITA        MOSUNNY   89  57  33 SE6       29.94F
OMAHA          MOSUNNY   76  65  68 SE3       29.93F
LINCOLN        SUNNY     83  62  49 N7        29.93F
FALLS CITY     SUNNY     86  67  52 CALM      29.91F
LAMONI         MOSUNNY   82  68  62 W7        29.93S
DES MOINES     MOSUNNY   82  69  64 NW8       29.90S

$$




USA.gov is the U.S. government's official web portal to all federal, state and local government web resources and services.